Flag Weather past 2 weeks in Barysaw, Belarus

Now
23 °F

Ice fog.


Feels Like: 12 °F
Forecast: 24 / 30 °F
Wind: 10 mph from South

Location: Minsk

Current Time: Nov 24, 2014 at 5:06:51 PM

Latest Report: Nov 24, 2014 at 4:30 PM


Visibility: 3 mi

Pressure: 30.51 "Hg

Humidity: 100%

Dew point: 23 °F

Location of BarysawLocation

Historic Weather in Barysaw — Graph

°F

Barysaw temperature yesterday

Maximum temperature yesterday: 32 °F (at 1:30 PM)
Minimum temperature yesterday: 23 °F (at 11:30 PM)
Average temperature yesterday: 28 °F

Past Weeks' High & Low Weather Summary

 TemperatureHumidityPressure
High50 °F (Nov 10, 3:00 PM)100% (Nov 9, 4:00 PM)30.57 "Hg (Nov 9, 4:00 PM)
Low14 °F (Nov 24, 6:30 AM)59% (Nov 18, 3:00 PM)30.15 "Hg (Nov 9, 4:00 PM)
Average34 °F89%30.30 "Hg
* Reported Nov 9 4:00 PM — Nov 24 4:00 PM, Barysaw, Weather by CustomWeather, © 2014

Note: Actual official high and low records may vary slightly from our data, if they occured in-between our weather recording intervals... More about our weather records

Advertising

Barysaw weather history for previous 24 hours

 ConditionsComfort  
Time TempWeatherWind HumidityBarometerVisibility
4:00 PM
Nov 24
23 °FIce fog.10 mph100%30.54 "Hg2 mi
3:30 PM23 °FIce fog.6 mph100%30.54 "Hg2 mi
3:00 PM23 °FIce fog.8 mph100%30.54 "Hg2 mi
2:30 PM23 °FIce fog.6 mph100%30.54 "Hg2 mi
2:00 PM23 °FIce fog.6 mph93%30.54 "Hg2 mi
1:45 PM23 °FIce fog.8 mph93%30.54 "Hg2 mi
1:30 PM23 °FIce fog.8 mph93%30.54 "Hg2 mi
1:00 PM21 °FIce fog.6 mph100%30.54 "Hg2 mi
12:49 PM21 °FIce fog.6 mph100%30.57 "Hg2 mi
12:30 PM21 °FIce fog.6 mph100%30.57 "Hg2 mi
12:00 PM19 °FIce fog.6 mph100%30.57 "Hg2 mi
11:30 AM19 °FIce fog.6 mph93%30.57 "Hg2 mi
11:00 AM19 °FIce fog.8 mph100%30.54 "Hg2 mi
10:30 AM19 °FIce fog.6 mph100%30.54 "Hg1 mi
10:00 AM19 °FIce fog.6 mph93%30.54 "Hg2 mi
9:30 AM16 °FIce fog.3 mph93%30.54 "Hg3 mi
9:00 AM14 °FIce fog.No wind92%30.54 "Hg3 mi
8:30 AM14 °FIce fog.No wind92%30.54 "Hg3 mi
8:00 AM14 °FClear.No wind100%30.54 "Hg4 mi
7:30 AM16 °FIce fog.No wind93%30.54 "Hg3 mi
7:00 AM16 °FIce fog.1 mph93%30.54 "Hg3 mi
6:30 AM14 °FIce fog.1 mph100%30.54 "Hg2 mi
6:00 AM16 °FIce fog.No wind100%30.54 "Hg3 mi
5:30 AM18 °FIce fog.No wind93%30.54 "Hg3 mi
5:00 AM16 °FIce fog.No wind100%30.54 "Hg3 mi
4:30 AM18 °FIce fog.No wind100%30.54 "Hg3 mi
4:00 AM18 °FIce fog.No wind100%30.54 "Hg3 mi
3:30 AM18 °FIce fog.No wind100%30.54 "Hg3 mi
2:30 AM21 °FIce fog.No wind93%30.54 "Hg2 mi
2:00 AM19 °FIce fog.3 mph100%30.54 "Hg2 mi
1:30 AM19 °FIce fog.3 mph100%30.54 "Hg2 mi
1:00 AM21 °FIce fog.No wind100%30.54 "Hg2 mi
12:30 AM21 °FIce fog.3 mph100%30.54 "Hg2 mi
12:00 AM23 °FIce fog.3 mph93%30.54 "Hg2 mi
11:30 PM
Nov 23
23 °FIce fog.3 mph93%30.54 "Hg3 mi
11:00 PM25 °FIce fog.No wind86%30.54 "Hg3 mi
10:30 PM25 °FIce fog.1 mph86%30.54 "Hg3 mi
10:00 PM27 °FClear.1 mph86%30.54 "Hg5 mi
9:30 PM28 °FClear.3 mph80%30.54 "Hg5 mi
9:00 PM27 °FClear.1 mph93%30.54 "Hg4 mi
8:30 PM27 °FClear.No wind93%30.51 "Hg4 mi
8:00 PM28 °FIce fog.No wind86%30.51 "Hg3 mi
7:30 PM27 °FIce fog.No wind93%30.51 "Hg3 mi
7:00 PM27 °FIce fog.1 mph93%30.51 "Hg3 mi
6:30 PM28 °FIce fog.1 mph80%30.51 "Hg3 mi
6:00 PM30 °FClear.1 mph75%30.51 "Hg5 mi
5:30 PM28 °FClear.3 mph80%30.48 "Hg5 mi
5:00 PM30 °FBroken clouds.3 mph75%30.48 "Hg6 mi
Weather by CustomWeather, © 2014

See weather overviewHow to use our weather pages